Regional Weather Roundup
Issued by NWS

Home | Current Version | Previous Version | Text Only | Print | Product List | Glossary On
Versions: 1 2 3 4 5 6 7 8 9 10 11 12 13 14 15 16 17 18 19 20 21 22 23 24 25 26 27 28 29 30 31 32 33 34 35 36 37 38 39 40 41 42 43 44 45 46 47 48 49 50
000
ASUS44 KFWD 250503
RWRTX
NORTH TEXAS HOURLY WEATHER ROUNDUP
NATIONAL WEATHER SERVICE FORT WORTH TX
1200 AM CDT MON SEP 25 2017

NOTE: "FAIR" INDICATES FEW OR NO CLOUDS BELOW 12,000 FEET WITH NO
SIGNIFICANT WEATHER AND/OR OBSTRUCTIONS TO VISIBILITY.

TXZ118-119-250600-
DALLAS/FORT WORTH METROPLEX

CITY           SKY/WX    TMP DP  RH WIND       PRES   REMARKS
DFW AIRPORT    PTCLDY    82  67  60 S10       29.88R
DALLAS LOVE    PTCLDY    81  65  58 SE12      29.89R
FTW MEACHAM    PTCLDY    82  67  60 SE14      29.88S
DAL-EXECUTIVE  CLEAR     79  68  69 SE9       29.89S
FTW-ALLIANCE   PTCLDY    80  66  62 SE12      29.88S
FTW-NAS-JRB    CLEAR     82  65  56 SE13      29.89S
FTW-SPINKS     CLEAR     77  65  66 SE6       29.91S
ARLINGTON      CLEAR     79  68  69 SE8       29.90R
GRAND PRAIRIE  CLEAR     79  65  62 SE5       29.91R
ADDISON        CLEAR     80  66  61 SE12      29.91S
MESQUITE       CLEAR     73  64  73 CALM      29.90S
LANCASTER      CLEAR     77  65  65 SE5       29.90F
$$

TXZ091>094-102>105-117-120-121-131>134-250600-
NORTH CENTRAL TEXAS

CITY           SKY/WX    TMP DP  RH WIND       PRES   REMARKS
SHRMAN/DENISON CLEAR     77  65  65 SE9       29.91F
GAINESVILLE    CLOUDY    75  64  68 SE5       29.92S
BOWIE          PTCLDY    76  65  67 CALM      29.90S
BRIDGEPORT     PTCLDY    76  63  63 SE6       29.90S
DECATUR        CLOUDY    79  65  62 SE8       29.89S
DENTON         CLOUDY    79  67  66 SE8       29.89R
MCKINNEY       CLEAR     75  68  78 E6        29.90S
BONHAM         CLEAR     73  65  75 SE7       29.91F
ROCKWALL       CLEAR     76  64  66 S8        29.90F
TERRELL        CLEAR     76  62  62 SE3       29.91R
WAXAHACHIE     CLEAR     76  67  74 CALM      29.91F
CLEBURNE       CLEAR     77  70  78 S8        29.91S
GRANBURY       CLOUDY    81  64  56 SE10      29.89F
$$

TXZ083>090-098>101-113>116-127>130-139>142-154-155-250600-
WESTERN NORTH TEXAS

CITY           SKY/WX    TMP DP  RH WIND       PRES   REMARKS
WICHITA FALLS  CLOUDY    78  63  59 SE10      29.87R
WF-KICKAPOO    CLOUDY    78  64  61 SE12      29.90S
VERNON         CLOUDY    76  64  67 E7        29.88S
ABILENE        CLOUDY    73  68  84 SE13      29.89F
ABILENE-DYESS  CLOUDY    73  67  81 S7        29.88F
BRECKENRIDGE   PTCLDY    77  67  70 S6        29.88S
CISCO          CLOUDY    72  70  94 SE6       29.91F
EASTLAND       CLOUDY    74  68  83 SE5       29.90S
RANGER         CLOUDY    73  68  86 S3        29.90S
MINERAL WELLS  CLOUDY    79  63  57 SE9       29.87S
STEPHENVILLE   CLOUDY    78  64  61 SE7       29.92F
COMANCHE       LGT RAIN  74  72  92 S3        29.90S
COLEMAN        CLOUDY    72  68  88 W3        29.91R
$$

TXZ143>147-156>162-174-175-250600-
CENTRAL TEXAS

CITY           SKY/WX    TMP DP  RH WIND       PRES   REMARKS
WACO           CLEAR     79  67  66 SE14      29.88S
WACO-MCGREGOR  CLEAR     79  69  71 SE10      29.89S
HILLSBORO      CLEAR     78  68  71 SE9       29.90S
CORSICANA      CLEAR     77  67  71 SE8       29.90S
MEXIA          CLEAR     75  68  79 S7        29.89S
HEARNE         CLEAR     75  71  86 CALM      29.89F
CAMERON        CLEAR     76  70  82 CALM      29.88S
TEMPLE         PTCLDY    78  70  76 SE13      29.89F
KILLEEN        NOT AVBL
FORT HOOD      PTCLDY   N/A N/A N/A SE8       29.86S
GATESVILLE     PTCLDY    75  68  78 CALM      29.91S
HAMILTON       CLOUDY    77  67  72 SE9       29.91S
LAMPASAS       CLEAR     76  71  85 S3        29.89S
$$

TXZ095>097-106>112-122>126-135>138-148>153-164>167-250600-
EAST TEXAS

CITY           SKY/WX    TMP DP  RH WIND       PRES   REMARKS
PARIS          CLEAR     73  67  81 E7        29.93S
SULPHUR SPRNGS CLEAR     75  65  73 CALM      29.94S
MOUNT PLEASANT CLEAR     71  68  90 E5        29.92F
GILMER         CLEAR     71  67  85 CALM      29.91S
MINEOLA        CLEAR     70  66  88 CALM      29.91S
TYLER          CLEAR     73  67  81 SE6       29.90F
LONGVIEW       CLEAR     74  69  85 E6        29.90F
MARSHALL       CLEAR     70  66  88 MISG      29.94S
ATHENS         CLEAR     72  63  73 CALM      29.89S
PALESTINE      CLEAR     76  69  78 SE3       29.91F
JACKSONVILLE   CLEAR     76  67  72 S3        29.94S
HENDERSON      CLEAR     70  67  90 CALM      29.92S
CENTER         CLEAR     75  73  95 CALM      29.92F
NACOGDOCHES    CLEAR     69  67  93 CALM      29.91F
LUFKIN         CLEAR     71  70  96 E5        29.90F
$$

SUPPLEMENTAL OBSERVATIONS (NWS FORT WORTH AREA)

CITY           SKY/WX    TMP DP  RH WIND       PRES   REMARKS
$$

SUPPLEMENTAL OBSERVATIONS (NWS NORMAN AREA)

CITY           SKY/WX    TMP DP  RH WIND       PRES   REMARKS
GOODLETT         N/A     71  66  83 SE5       29.89S
ODELL            N/A     75  68  77 E8        29.89S
CROWELL          N/A     73  68  84 E5        29.89F
KNOX CITY        N/A     71  65  81 S6        29.89S
SEYMOUR          N/A     73  65  77 SE3       29.88F
$$

SUPPLEMENTAL OBSERVATIONS (NWS SAN ANGELO AREA)

CITY           SKY/WX    TMP DP  RH WIND       PRES   REMARKS
HASKELL          N/A     73  63  71 SE5       29.89S
THROCKMORTON     N/A     73  69  86 SE6       29.90S
STAMFORD         N/A     72  67  85 SE7       29.90S
CLYDE            N/A     71  68  89 SE9       29.93S
$$

SUPPLEMENTAL OBSERVATIONS (NWS SHREVEPORT AREA)

CITY           SKY/WX    TMP DP  RH WIND       PRES   REMARKS
$$

SUPPLEMENTAL OBSERVATIONS ARE A COLLECTION OF AUTOMATED INSTRUMENTS
THAT ARE MAINTAINED BY A VARIETY OF FEDERAL AND STATE AGENCIES.
CERTAIN ELEMENTS...SUCH AS HUMIDITY VALUES AND SUSTAINED WIND
SPEEDS...MAY BE APPROXIMATED.





USA.gov is the U.S. government's official web portal to all federal, state and local government web resources and services.